This is the latest recevied weather packets stored in our database for station/object WP3OF-1. If no packets are shown the sender has not sent any weather packets the latest 10 day(s).
| Time | Temp. | Humidity | Pressure | Rain* | Wind** | Luminosity | Snow |
|---|---|---|---|---|---|---|---|
| 1777918464 | 28.33° C | 75% | 1016.1 hPa | 0 mm | - | - | - |
| 1777918162 | 28.33° C | 76% | 1016.3 hPa | 0 mm | - | - | - |
| 1777917861 | 28.33° C | 76% | 1016.4 hPa | 0 mm | - | - | - |
| 1777917559 | 28.89° C | 75% | 1016.3 hPa | 0 mm | - | - | - |
| 1777917255 | 27.78° C | 76% | 1016.7 hPa | 0 mm | - | - | - |
| 1777916953 | 28.89° C | 75% | 1016.7 hPa | 0 mm | - | - | - |
| 1777916650 | 28.89° C | 75% | 1016.9 hPa | 0 mm | - | - | - |
| 1777916348 | 28.89° C | 74% | 1016.7 hPa | 0 mm | - | - | - |
| 1777916044 | 30° C | 70% | 1016.8 hPa | 0 mm | - | - | - |
| 1777915741 | 28.89° C | 72% | 1016.8 hPa | 0 mm | - | - | - |
| 1777915437 | 28.33° C | 75% | 1016.8 hPa | 0 mm | - | - | - |
| 1777915133 | 28.33° C | 74% | 1016.8 hPa | 0 mm | - | - | - |
| 1777914831 | 28.89° C | 72% | 1016.6 hPa | 0 mm | - | - | - |
| 1777914528 | 28.89° C | 74% | 1016.6 hPa | 0 mm | - | - | - |
| 1777914224 | 28.89° C | 74% | 1017 hPa | 0 mm | - | - | - |
| 1777913921 | 29.44° C | 71% | 1017 hPa | 0 mm | - | - | - |
| 1777913618 | 28.89° C | 75% | 1017.3 hPa | 0 mm | - | - | - |
| 1777913314 | 28.33° C | 74% | 1017 hPa | 0 mm | - | - | - |
| 1777913011 | 28.89° C | 72% | 1017.1 hPa | 0 mm | - | - | - |
| 1777912707 | 28.89° C | 72% | 1017 hPa | 0 mm | - | - | - |
| 1777912403 | 28.33° C | 76% | 1017.1 hPa | 0 mm | - | - | - |
| 1777912100 | 27.78° C | 79% | 1017.2 hPa | 0 mm | - | - | - |
| 1777911795 | 28.33° C | 79% | 1017.5 hPa | 0 mm | - | - | - |
| 1777911492 | 28.33° C | 76% | 1017.8 hPa | 0 mm | - | - | - |
| 1777911189 | 28.89° C | 75% | 1017.8 hPa | 0 mm | - | - | - |
* Rain latest hour (hover to see other rain measurements)
** Current wind speed in m/s (hover to see current wind gust speed)